Year,Month,Day,Hour,Minute,Value (Times are PST for windspeed in km/hr)
2021,11,04,00,00,5.40
2021,11,04,00,01,6.20
2021,11,04,00,02,5.50
2021,11,04,00,03,5.10
2021,11,04,00,04,6.00
2021,11,04,00,05,6.00
2021,11,04,00,06,5.40
2021,11,04,00,07,5.80
2021,11,04,00,08,6.30
2021,11,04,00,09,6.70
2021,11,04,00,10,4.70
2021,11,04,00,11,3.10
2021,11,04,00,12,3.70
2021,11,04,00,13,5.60
2021,11,04,00,14,6.60
2021,11,04,00,15,7.90
2021,11,04,00,16,7.20
2021,11,04,00,17,6.70
2021,11,04,00,18,5.80
2021,11,04,00,19,4.30
2021,11,04,00,20,2.90
2021,11,04,00,21,4.00
2021,11,04,00,22,4.40
2021,11,04,00,23,5.30
2021,11,04,00,24,5.00
2021,11,04,00,25,4.80
2021,11,04,00,26,6.50
2021,11,04,00,27,5.40
2021,11,04,00,28,6.20
2021,11,04,00,29,7.00
2021,11,04,00,30,6.00
2021,11,04,00,31,2.80
2021,11,04,00,32,2.90
2021,11,04,00,33,1.70
2021,11,04,00,34,2.50
2021,11,04,00,35,3.20
2021,11,04,00,36,2.90
2021,11,04,00,37,2.10
2021,11,04,00,38,4.30
2021,11,04,00,39,4.30
2021,11,04,00,40,3.10
2021,11,04,00,41,5.90
2021,11,04,00,42,5.70
2021,11,04,00,43,4.70
2021,11,04,00,44,5.50
2021,11,04,00,45,5.30
2021,11,04,00,46,3.60
2021,11,04,00,47,2.90
2021,11,04,00,48,0.60
2021,11,04,00,49,1.00
2021,11,04,00,50,0.10
2021,11,04,00,51,0.00
2021,11,04,00,52,0.10
2021,11,04,00,53,1.10
2021,11,04,00,54,0.70
2021,11,04,00,55,1.40
2021,11,04,00,56,0.00
2021,11,04,00,57,0.00
2021,11,04,00,58,0.10
2021,11,04,00,59,0.00
2021,11,04,01,00,0.00
2021,11,04,01,01,0.00
2021,11,04,01,02,0.00
2021,11,04,01,03,0.00
2021,11,04,01,04,0.00
2021,11,04,01,05,0.00
2021,11,04,01,06,0.00
2021,11,04,01,07,0.00
2021,11,04,01,08,0.00
2021,11,04,01,09,0.00
2021,11,04,01,10,0.00
2021,11,04,01,11,3.00
2021,11,04,01,12,3.50
2021,11,04,01,13,2.30
2021,11,04,01,14,4.80
2021,11,04,01,15,3.60
2021,11,04,01,16,2.30
2021,11,04,01,17,6.40
2021,11,04,01,18,6.00
2021,11,04,01,19,5.80
2021,11,04,01,20,6.10
2021,11,04,01,21,6.60
2021,11,04,01,22,6.60
2021,11,04,01,23,6.20
2021,11,04,01,24,4.90
2021,11,04,01,25,1.60
2021,11,04,01,26,2.10
2021,11,04,01,27,1.70
2021,11,04,01,28,4.30
2021,11,04,01,29,5.30
2021,11,04,01,30,3.20
2021,11,04,01,31,1.70
2021,11,04,01,32,0.40
2021,11,04,01,33,0.00
2021,11,04,01,34,0.00
2021,11,04,01,35,0.00
2021,11,04,01,36,0.00
2021,11,04,01,37,0.00
2021,11,04,01,38,0.00
2021,11,04,01,39,0.00
2021,11,04,01,40,0.00
2021,11,04,01,41,0.00
2021,11,04,01,42,0.00
2021,11,04,01,43,0.00
2021,11,04,01,44,0.00
2021,11,04,01,45,0.00
2021,11,04,01,46,0.00
2021,11,04,01,47,0.00
2021,11,04,01,48,0.00
2021,11,04,01,49,0.00
2021,11,04,01,50,0.00
2021,11,04,01,51,0.00
2021,11,04,01,52,0.00
2021,11,04,01,53,0.00
2021,11,04,01,54,0.00
2021,11,04,01,55,0.00
2021,11,04,01,56,0.00
2021,11,04,01,57,0.00
2021,11,04,01,58,0.00
2021,11,04,01,59,0.00
2021,11,04,02,00,0.00
2021,11,04,02,01,0.00
2021,11,04,02,02,0.00
2021,11,04,02,03,0.00
2021,11,04,02,04,0.00
2021,11,04,02,05,0.00
2021,11,04,02,06,0.00
2021,11,04,02,07,0.00
2021,11,04,02,08,0.00
2021,11,04,02,09,0.00
2021,11,04,02,10,0.00
2021,11,04,02,11,0.00
2021,11,04,02,12,0.00
2021,11,04,02,13,0.00
2021,11,04,02,14,0.00
2021,11,04,02,15,0.00
2021,11,04,02,16,0.00
2021,11,04,02,17,0.00
2021,11,04,02,18,4.40
2021,11,04,02,19,6.10
2021,11,04,02,20,5.30
2021,11,04,02,21,5.20
2021,11,04,02,22,4.80
2021,11,04,02,23,2.80
2021,11,04,02,24,1.50
2021,11,04,02,25,0.70
2021,11,04,02,26,1.00
2021,11,04,02,27,0.00
2021,11,04,02,28,0.00
2021,11,04,02,29,0.00
2021,11,04,02,30,0.70
2021,11,04,02,31,2.30
2021,11,04,02,32,2.00
2021,11,04,02,33,1.90
2021,11,04,02,34,0.40
2021,11,04,02,35,0.00
2021,11,04,02,36,0.00
2021,11,04,02,37,0.00
2021,11,04,02,38,0.00
2021,11,04,02,39,0.00
2021,11,04,02,40,0.00
2021,11,04,02,41,0.00
2021,11,04,02,42,0.00
2021,11,04,02,43,0.00
2021,11,04,02,44,0.00
2021,11,04,02,45,0.00
2021,11,04,02,46,0.00
2021,11,04,02,47,0.00
2021,11,04,02,48,0.10
2021,11,04,02,49,0.00
2021,11,04,02,50,0.00
2021,11,04,02,51,0.00
2021,11,04,02,52,0.00
2021,11,04,02,53,0.00
2021,11,04,02,54,0.00
2021,11,04,02,55,0.00
2021,11,04,02,56,0.00
2021,11,04,02,57,0.00
2021,11,04,02,58,0.10
2021,11,04,02,59,1.90
2021,11,04,03,00,2.50
2021,11,04,03,01,0.40
2021,11,04,03,02,2.10
2021,11,04,03,03,1.60
2021,11,04,03,04,0.00
2021,11,04,03,05,0.00
2021,11,04,03,06,0.00
2021,11,04,03,07,1.60
2021,11,04,03,08,2.40
2021,11,04,03,09,0.70
2021,11,04,03,10,0.00
2021,11,04,03,11,0.00
2021,11,04,03,12,0.00
2021,11,04,03,13,0.10
2021,11,04,03,14,2.30
2021,11,04,03,15,2.90
2021,11,04,03,16,2.40
2021,11,04,03,17,1.70
2021,11,04,03,18,2.20
2021,11,04,03,19,1.50
2021,11,04,03,20,2.00
2021,11,04,03,21,1.90
2021,11,04,03,22,1.00
2021,11,04,03,23,0.40
2021,11,04,03,24,0.00
2021,11,04,03,25,0.00
2021,11,04,03,26,0.00
2021,11,04,03,27,0.00
2021,11,04,03,28,0.00
2021,11,04,03,29,0.00
2021,11,04,03,30,0.00
2021,11,04,03,31,0.00
2021,11,04,03,32,0.00
2021,11,04,03,33,0.00
2021,11,04,03,34,0.90
2021,11,04,03,35,0.30
2021,11,04,03,36,0.00
2021,11,04,03,37,0.00
2021,11,04,03,38,0.00
2021,11,04,03,39,0.00
2021,11,04,03,40,0.00
2021,11,04,03,41,0.00
2021,11,04,03,42,0.00
2021,11,04,03,43,0.00
2021,11,04,03,44,0.00
2021,11,04,03,45,0.00
2021,11,04,03,46,0.00
2021,11,04,03,47,0.70
2021,11,04,03,48,0.90
2021,11,04,03,49,5.40
2021,11,04,03,50,4.10
2021,11,04,03,51,2.90
2021,11,04,03,52,7.20
2021,11,04,03,53,7.00
2021,11,04,03,54,8.10
2021,11,04,03,55,10.30
2021,11,04,03,56,8.30
2021,11,04,03,57,6.20
2021,11,04,03,58,7.30
2021,11,04,03,59,4.90
2021,11,04,04,00,5.80
2021,11,04,04,01,5.10
2021,11,04,04,02,4.40
2021,11,04,04,03,5.10
2021,11,04,04,04,8.70
2021,11,04,04,05,13.10
2021,11,04,04,06,8.90
2021,11,04,04,07,13.40
2021,11,04,04,08,15.70
2021,11,04,04,09,14.90
2021,11,04,04,10,21.50
2021,11,04,04,11,16.30
2021,11,04,04,12,17.20
2021,11,04,04,13,19.70
2021,11,04,04,14,18.20
2021,11,04,04,15,24.60
2021,11,04,04,16,21.00
2021,11,04,04,17,21.20
2021,11,04,04,18,21.10
2021,11,04,04,19,20.40
2021,11,04,04,20,22.80
2021,11,04,04,21,21.80
2021,11,04,04,22,18.80
2021,11,04,04,23,25.10
2021,11,04,04,24,22.20
2021,11,04,04,25,25.60
2021,11,04,04,26,25.20
2021,11,04,04,27,21.50
2021,11,04,04,28,20.10
2021,11,04,04,29,25.90
2021,11,04,04,30,24.80
2021,11,04,04,31,21.30
2021,11,04,04,32,22.70
2021,11,04,04,33,22.80
2021,11,04,04,34,23.10
2021,11,04,04,35,24.30
2021,11,04,04,36,26.10
2021,11,04,04,37,26.10
2021,11,04,04,38,24.40
2021,11,04,04,39,27.90
2021,11,04,04,40,32.10
2021,11,04,04,41,28.40
2021,11,04,04,42,23.90
2021,11,04,04,43,28.40
2021,11,04,04,44,29.60
2021,11,04,04,45,26.80
2021,11,04,04,46,26.50
2021,11,04,04,47,26.50
2021,11,04,04,48,28.60
2021,11,04,04,49,31.30
2021,11,04,04,50,27.50
2021,11,04,04,51,25.90
2021,11,04,04,52,32.00
2021,11,04,04,53,32.50
2021,11,04,04,54,31.40
2021,11,04,04,55,28.80
2021,11,04,04,56,28.60
2021,11,04,04,57,31.00
2021,11,04,04,58,22.30
2021,11,04,04,59,23.80
2021,11,04,05,00,22.80
2021,11,04,05,01,28.30
2021,11,04,05,02,25.60
2021,11,04,05,03,23.20
2021,11,04,05,04,24.30
2021,11,04,05,05,24.00
2021,11,04,05,06,25.70
2021,11,04,05,07,25.00
2021,11,04,05,08,26.80
2021,11,04,05,09,26.10
2021,11,04,05,10,22.60
2021,11,04,05,11,25.80
2021,11,04,05,12,24.10
2021,11,04,05,13,24.90
2021,11,04,05,14,21.50
2021,11,04,05,15,25.20
2021,11,04,05,16,27.80
2021,11,04,05,17,26.80
2021,11,04,05,18,27.50
2021,11,04,05,19,22.90
2021,11,04,05,20,22.80
2021,11,04,05,21,27.10
2021,11,04,05,22,27.40
2021,11,04,05,23,28.40
2021,11,04,05,24,26.80
2021,11,04,05,25,28.70
2021,11,04,05,26,29.60
2021,11,04,05,27,24.90
2021,11,04,05,28,23.20
2021,11,04,05,29,22.70
2021,11,04,05,30,26.80
2021,11,04,05,31,23.60
2021,11,04,05,32,22.20
2021,11,04,05,33,28.90
2021,11,04,05,34,21.90
2021,11,04,05,35,18.10
2021,11,04,05,36,24.90
2021,11,04,05,37,22.90
2021,11,04,05,38,22.60
2021,11,04,05,39,19.50
2021,11,04,05,40,19.00
2021,11,04,05,41,21.20
2021,11,04,05,42,21.90
2021,11,04,05,43,16.60
2021,11,04,05,44,14.40
2021,11,04,05,45,14.00
2021,11,04,05,46,16.50
2021,11,04,05,47,14.50
2021,11,04,05,48,17.10
2021,11,04,05,49,13.60
2021,11,04,05,50,13.50
2021,11,04,05,51,13.50
2021,11,04,05,52,15.30
2021,11,04,05,53,14.80
2021,11,04,05,54,15.00
2021,11,04,05,55,14.80
2021,11,04,05,56,12.60
2021,11,04,05,57,13.40
2021,11,04,05,58,13.20
2021,11,04,05,59,14.50
2021,11,04,06,00,13.70
2021,11,04,06,01,13.20
2021,11,04,06,02,12.10
2021,11,04,06,03,11.10
2021,11,04,06,04,10.00
2021,11,04,06,05,10.50
2021,11,04,06,06,13.50
2021,11,04,06,07,10.20
2021,11,04,06,08,12.60
2021,11,04,06,09,12.80
2021,11,04,06,10,11.50
2021,11,04,06,11,13.70
2021,11,04,06,12,14.30
2021,11,04,06,13,14.90
2021,11,04,06,14,12.60
2021,11,04,06,15,11.00
2021,11,04,06,16,6.70
2021,11,04,06,17,7.60
2021,11,04,06,18,4.40
2021,11,04,06,19,6.10
2021,11,04,06,20,9.40
2021,11,04,06,21,7.70
2021,11,04,06,22,7.10
2021,11,04,06,23,7.50
2021,11,04,06,24,8.90
2021,11,04,06,25,6.60
2021,11,04,06,26,5.30
2021,11,04,06,27,4.90
2021,11,04,06,28,1.40
2021,11,04,06,29,2.80
2021,11,04,06,30,5.00
2021,11,04,06,31,5.50
2021,11,04,06,32,6.90
2021,11,04,06,33,9.30
2021,11,04,06,34,6.70
2021,11,04,06,35,3.50
2021,11,04,06,36,3.70
2021,11,04,06,37,2.60
2021,11,04,06,38,2.90
2021,11,04,06,39,2.50
2021,11,04,06,40,1.50
2021,11,04,06,41,1.80
2021,11,04,06,42,1.80
2021,11,04,06,43,0.20
2021,11,04,06,44,0.00
2021,11,04,06,45,0.70
2021,11,04,06,46,2.00
2021,11,04,06,47,0.40
2021,11,04,06,48,0.00
2021,11,04,06,49,0.00
2021,11,04,06,50,0.00
2021,11,04,06,51,0.00
2021,11,04,06,52,0.00
2021,11,04,06,53,0.00
2021,11,04,06,54,0.00
2021,11,04,06,55,0.00
2021,11,04,06,56,0.00
2021,11,04,06,57,0.00
2021,11,04,06,58,0.00
2021,11,04,06,59,0.00
2021,11,04,07,00,0.00
2021,11,04,07,01,0.70
2021,11,04,07,02,3.10
2021,11,04,07,03,2.00
2021,11,04,07,04,4.10
2021,11,04,07,05,6.30
2021,11,04,07,06,6.00
2021,11,04,07,07,4.50
2021,11,04,07,08,2.80
2021,11,04,07,09,0.20
2021,11,04,07,10,0.00
2021,11,04,07,11,0.10
2021,11,04,07,12,1.70
2021,11,04,07,13,0.60
2021,11,04,07,14,2.20
2021,11,04,07,15,3.70
2021,11,04,07,16,3.60
2021,11,04,07,17,0.80
2021,11,04,07,18,0.10
2021,11,04,07,19,0.00
2021,11,04,07,20,0.00
2021,11,04,07,21,0.10
2021,11,04,07,22,0.00
2021,11,04,07,23,0.00
2021,11,04,07,24,0.00
2021,11,04,07,25,0.00
2021,11,04,07,26,0.00
2021,11,04,07,27,0.00
2021,11,04,07,28,0.00
2021,11,04,07,29,0.00
2021,11,04,07,30,0.30
2021,11,04,07,31,1.10
2021,11,04,07,32,2.50
2021,11,04,07,33,1.80
2021,11,04,07,34,0.10
2021,11,04,07,35,0.00
2021,11,04,07,36,0.00
2021,11,04,07,37,0.00
2021,11,04,07,38,0.00
2021,11,04,07,39,0.00
2021,11,04,07,40,0.00
2021,11,04,07,41,0.00
2021,11,04,07,42,0.00
2021,11,04,07,43,0.00
2021,11,04,07,44,0.00
2021,11,04,07,45,0.00
2021,11,04,07,46,0.00
2021,11,04,07,47,0.00
2021,11,04,07,48,0.00
2021,11,04,07,49,0.00
2021,11,04,07,50,0.00
2021,11,04,07,51,0.00
2021,11,04,07,52,0.00
2021,11,04,07,53,0.00
2021,11,04,07,54,0.00
2021,11,04,07,55,0.00
2021,11,04,07,56,0.00
2021,11,04,07,57,0.00
2021,11,04,07,58,0.00
2021,11,04,07,59,1.70
2021,11,04,08,00,4.90
2021,11,04,08,01,4.20
2021,11,04,08,02,5.10
2021,11,04,08,03,3.70
2021,11,04,08,04,2.30
2021,11,04,08,05,1.00
2021,11,04,08,06,0.00
2021,11,04,08,07,0.00
2021,11,04,08,08,0.00
2021,11,04,08,09,0.10
2021,11,04,08,10,0.00
2021,11,04,08,11,0.00
2021,11,04,08,12,0.00
2021,11,04,08,13,0.00
2021,11,04,08,14,0.00
2021,11,04,08,15,0.00
2021,11,04,08,16,0.00
2021,11,04,08,17,0.00
2021,11,04,08,18,0.00
2021,11,04,08,19,0.10
2021,11,04,08,20,0.00
2021,11,04,08,21,0.00
2021,11,04,08,22,0.00
2021,11,04,08,23,0.00
2021,11,04,08,24,0.00
2021,11,04,08,25,0.00
2021,11,04,08,26,0.00
2021,11,04,08,27,0.00
2021,11,04,08,28,0.00
2021,11,04,08,29,0.00
2021,11,04,08,30,0.00
2021,11,04,08,31,0.00
2021,11,04,08,32,0.00
2021,11,04,08,33,0.20
2021,11,04,08,34,2.60
2021,11,04,08,35,6.40
2021,11,04,08,36,6.90
2021,11,04,08,37,5.40
2021,11,04,08,38,4.50
2021,11,04,08,39,5.70
2021,11,04,08,40,6.40
2021,11,04,08,41,6.00
2021,11,04,08,42,4.20
2021,11,04,08,43,2.70
2021,11,04,08,44,1.90
2021,11,04,08,45,0.00
2021,11,04,08,46,0.00
2021,11,04,08,47,0.10
2021,11,04,08,48,0.00
2021,11,04,08,49,0.00
2021,11,04,08,50,0.00
2021,11,04,08,51,2.20
2021,11,04,08,52,2.90
2021,11,04,08,53,1.90
2021,11,04,08,54,0.10
2021,11,04,08,55,0.00
2021,11,04,08,56,0.00
2021,11,04,08,57,0.00
2021,11,04,08,58,2.90
2021,11,04,08,59,5.10
2021,11,04,09,00,4.00
2021,11,04,09,01,3.40
2021,11,04,09,02,4.40
2021,11,04,09,03,2.80
2021,11,04,09,04,2.30
2021,11,04,09,05,1.80
2021,11,04,09,06,0.00
2021,11,04,09,07,0.00
2021,11,04,09,08,0.00
2021,11,04,09,09,0.00
2021,11,04,09,10,0.00
2021,11,04,09,11,0.00
2021,11,04,09,12,0.00
2021,11,04,09,13,0.00
2021,11,04,09,14,0.10
2021,11,04,09,15,0.00
2021,11,04,09,16,0.80
2021,11,04,09,17,3.20
2021,11,04,09,18,2.60
2021,11,04,09,19,6.70
2021,11,04,09,20,9.30
2021,11,04,09,21,4.90
2021,11,04,09,22,4.00
2021,11,04,09,23,5.20
2021,11,04,09,24,4.60
2021,11,04,09,25,8.90
2021,11,04,09,26,5.30
2021,11,04,09,27,6.70
2021,11,04,09,28,8.30
2021,11,04,09,29,8.90
2021,11,04,09,30,6.20
2021,11,04,09,31,7.60
2021,11,04,09,32,12.50
2021,11,04,09,33,10.00
2021,11,04,09,34,10.40
2021,11,04,09,35,7.40
2021,11,04,09,36,8.10
2021,11,04,09,37,9.10
2021,11,04,09,38,9.30
2021,11,04,09,39,9.70
2021,11,04,09,40,6.40
2021,11,04,09,41,8.50
2021,11,04,09,42,8.90
2021,11,04,09,43,7.00
2021,11,04,09,44,11.00
2021,11,04,09,45,8.50
2021,11,04,09,46,9.30
2021,11,04,09,47,9.30
2021,11,04,09,48,9.10
2021,11,04,09,49,10.60
2021,11,04,09,50,9.10
2021,11,04,09,51,9.20
2021,11,04,09,52,10.70
2021,11,04,09,53,7.00
2021,11,04,09,54,7.00
2021,11,04,09,55,7.20
2021,11,04,09,56,6.30
2021,11,04,09,57,8.70
2021,11,04,09,58,3.80
2021,11,04,09,59,2.80
2021,11,04,10,00,5.80
2021,11,04,10,01,6.10
2021,11,04,10,02,4.90
2021,11,04,10,03,4.60
2021,11,04,10,04,2.50
2021,11,04,10,05,2.60
2021,11,04,10,06,1.90
2021,11,04,10,07,6.40
2021,11,04,10,08,5.00
2021,11,04,10,09,6.30
2021,11,04,10,10,7.50
2021,11,04,10,11,8.80
2021,11,04,10,12,9.40
2021,11,04,10,13,10.10
2021,11,04,10,14,11.70
2021,11,04,10,15,11.90
2021,11,04,10,16,12.80
2021,11,04,10,17,14.80
2021,11,04,10,18,14.80
2021,11,04,10,19,14.80
2021,11,04,10,20,16.20
2021,11,04,10,21,14.90
2021,11,04,10,22,13.50
2021,11,04,10,23,10.00
2021,11,04,10,24,11.20
2021,11,04,10,25,11.70
2021,11,04,10,26,8.60
2021,11,04,10,27,12.10
2021,11,04,10,28,13.10
2021,11,04,10,29,9.70
2021,11,04,10,30,11.00
2021,11,04,10,31,8.30
2021,11,04,10,32,9.80
2021,11,04,10,33,6.70
2021,11,04,10,34,9.50
2021,11,04,10,35,9.90
2021,11,04,10,36,8.20
2021,11,04,10,37,10.90
2021,11,04,10,38,8.30
2021,11,04,10,39,6.70
2021,11,04,10,40,4.20
2021,11,04,10,41,6.80
2021,11,04,10,42,10.10
2021,11,04,10,43,10.10
2021,11,04,10,44,12.60
2021,11,04,10,45,12.40
2021,11,04,10,46,7.60
2021,11,04,10,47,5.50
2021,11,04,10,48,2.40
2021,11,04,10,49,3.10
2021,11,04,10,50,4.40
2021,11,04,10,51,7.00
2021,11,04,10,52,8.90
2021,11,04,10,53,10.00
2021,11,04,10,54,7.10
2021,11,04,10,55,6.20
2021,11,04,10,56,10.00
2021,11,04,10,57,14.00
2021,11,04,10,58,13.60
2021,11,04,10,59,12.90
2021,11,04,11,00,10.90
2021,11,04,11,01,12.20
2021,11,04,11,02,10.30
2021,11,04,11,03,11.90
2021,11,04,11,04,12.60
2021,11,04,11,05,16.10
2021,11,04,11,06,16.20
2021,11,04,11,07,17.00
2021,11,04,11,08,15.50
2021,11,04,11,09,14.20
2021,11,04,11,10,15.40
2021,11,04,11,11,17.20
2021,11,04,11,12,17.40
2021,11,04,11,13,16.90
2021,11,04,11,14,13.70
2021,11,04,11,15,12.00
2021,11,04,11,16,10.00
2021,11,04,11,17,11.30
2021,11,04,11,18,9.50
2021,11,04,11,19,13.10
2021,11,04,11,20,14.20
2021,11,04,11,21,16.00
2021,11,04,11,22,17.20
2021,11,04,11,23,19.40
2021,11,04,11,24,20.10
2021,11,04,11,25,20.10
2021,11,04,11,26,21.30
2021,11,04,11,27,21.70
2021,11,04,11,28,19.10
2021,11,04,11,29,18.90
2021,11,04,11,30,18.70
2021,11,04,11,31,18.20
2021,11,04,11,32,18.90
2021,11,04,11,33,19.40
2021,11,04,11,34,18.60
2021,11,04,11,35,18.90
2021,11,04,11,36,17.80
2021,11,04,11,37,15.20
2021,11,04,11,38,19.10
2021,11,04,11,39,16.20
2021,11,04,11,40,16.10
2021,11,04,11,41,21.00
2021,11,04,11,42,20.60
2021,11,04,11,43,19.00
2021,11,04,11,44,18.40
2021,11,04,11,45,20.00
2021,11,04,11,46,18.30
2021,11,04,11,47,17.30
2021,11,04,11,48,19.80
2021,11,04,11,49,19.60
2021,11,04,11,50,22.10
2021,11,04,11,51,25.10
2021,11,04,11,52,20.30
2021,11,04,11,53,21.10
2021,11,04,11,54,21.60
2021,11,04,11,55,20.50
2021,11,04,11,56,19.70
2021,11,04,11,57,20.10
2021,11,04,11,58,17.60
2021,11,04,11,59,21.70
2021,11,04,12,00,20.90
2021,11,04,12,01,18.40
2021,11,04,12,02,20.50
2021,11,04,12,03,19.40
2021,11,04,12,04,23.20
2021,11,04,12,05,20.00
2021,11,04,12,06,19.90
2021,11,04,12,07,23.20
2021,11,04,12,08,25.50
2021,11,04,12,09,20.90
2021,11,04,12,10,22.10
2021,11,04,12,11,23.50
2021,11,04,12,12,24.70
2021,11,04,12,13,23.10
2021,11,04,12,14,21.10
2021,11,04,12,15,16.30
2021,11,04,12,16,23.20
2021,11,04,12,17,23.50
2021,11,04,12,18,24.60
2021,11,04,12,19,23.20
2021,11,04,12,20,26.70
2021,11,04,12,21,22.50
2021,11,04,12,22,24.40
2021,11,04,12,23,24.50
2021,11,04,12,24,25.20
2021,11,04,12,25,24.00
2021,11,04,12,26,24.60
2021,11,04,12,27,22.50
2021,11,04,12,28,21.50
2021,11,04,12,29,22.60
2021,11,04,12,30,21.80
2021,11,04,12,31,25.00
2021,11,04,12,32,24.30
2021,11,04,12,33,23.50
2021,11,04,12,34,24.60
2021,11,04,12,35,25.20
2021,11,04,12,36,26.60
2021,11,04,12,37,24.70
2021,11,04,12,38,28.30
2021,11,04,12,39,30.20
2021,11,04,12,40,26.90
2021,11,04,12,41,28.40
2021,11,04,12,42,29.10
2021,11,04,12,43,32.40
2021,11,04,12,44,36.40
2021,11,04,12,45,36.90
2021,11,04,12,46,34.60
2021,11,04,12,47,35.00
2021,11,04,12,48,29.50
2021,11,04,12,49,32.90
2021,11,04,12,50,32.40
2021,11,04,12,51,29.80
2021,11,04,12,52,29.70
2021,11,04,12,53,26.60
2021,11,04,12,54,28.00
2021,11,04,12,55,27.50
2021,11,04,12,56,24.10
2021,11,04,12,57,25.30
2021,11,04,12,58,25.60
2021,11,04,12,59,24.00
2021,11,04,13,00,28.30
2021,11,04,13,01,22.00
2021,11,04,13,02,22.10
2021,11,04,13,03,22.10
2021,11,04,13,04,21.50
2021,11,04,13,05,16.90
2021,11,04,13,06,17.20
2021,11,04,13,07,21.40
2021,11,04,13,08,24.10
2021,11,04,13,09,21.80
2021,11,04,13,10,22.90
2021,11,04,13,11,24.90
2021,11,04,13,12,24.90
2021,11,04,13,13,25.70
2021,11,04,13,14,24.00
2021,11,04,13,15,24.10
2021,11,04,13,16,22.10
2021,11,04,13,17,20.50
2021,11,04,13,18,23.30
2021,11,04,13,19,22.00
2021,11,04,13,20,18.80
2021,11,04,13,21,23.60
2021,11,04,13,22,22.20
2021,11,04,13,23,20.30
2021,11,04,13,24,22.50
2021,11,04,13,25,18.70
2021,11,04,13,26,18.90
2021,11,04,13,27,20.00
2021,11,04,13,28,17.60
2021,11,04,13,29,18.50
2021,11,04,13,30,16.90
2021,11,04,13,31,18.00
2021,11,04,13,32,18.90
2021,11,04,13,33,21.70
2021,11,04,13,34,19.10
2021,11,04,13,35,16.00
2021,11,04,13,36,17.60
2021,11,04,13,37,20.60
2021,11,04,13,38,16.90
2021,11,04,13,39,20.70
2021,11,04,13,40,19.50
2021,11,04,13,41,21.10
2021,11,04,13,42,21.40
2021,11,04,13,43,18.40
2021,11,04,13,44,18.40
2021,11,04,13,45,9.60
2021,11,04,13,46,14.40
2021,11,04,13,47,8.60
2021,11,04,13,48,7.50
2021,11,04,13,49,8.20
2021,11,04,13,50,9.80
2021,11,04,13,51,12.10
2021,11,04,13,52,14.40
2021,11,04,13,53,10.20
2021,11,04,13,54,10.80
2021,11,04,13,55,7.50
2021,11,04,13,56,8.30
2021,11,04,13,57,8.80
2021,11,04,13,58,14.20
2021,11,04,13,59,10.00
2021,11,04,14,00,12.20
2021,11,04,14,01,11.10
2021,11,04,14,02,13.20
2021,11,04,14,03,13.20
2021,11,04,14,04,6.60
2021,11,04,14,05,12.30
2021,11,04,14,06,12.60
2021,11,04,14,07,9.00
2021,11,04,14,08,8.70
2021,11,04,14,09,6.90
2021,11,04,14,10,8.20
2021,11,04,14,11,6.10
2021,11,04,14,12,4.00
2021,11,04,14,13,5.00
2021,11,04,14,14,5.60
2021,11,04,14,15,4.60
2021,11,04,14,16,5.10
2021,11,04,14,17,3.70
2021,11,04,14,18,5.20
2021,11,04,14,19,5.70
2021,11,04,14,20,7.70
2021,11,04,14,21,6.10
2021,11,04,14,22,4.00
2021,11,04,14,23,1.30
2021,11,04,14,24,2.70
2021,11,04,14,25,2.60
2021,11,04,14,26,3.00
2021,11,04,14,27,1.40
2021,11,04,14,28,0.00
2021,11,04,14,29,2.60
2021,11,04,14,30,1.40
2021,11,04,14,31,4.70
2021,11,04,14,32,2.50
2021,11,04,14,33,0.00
2021,11,04,14,34,0.50
2021,11,04,14,35,1.40
2021,11,04,14,36,0.50
2021,11,04,14,37,1.80
2021,11,04,14,38,2.00
2021,11,04,14,39,1.90
2021,11,04,14,40,1.60
2021,11,04,14,41,2.10
2021,11,04,14,42,4.10
2021,11,04,14,43,4.80
2021,11,04,14,44,2.70
2021,11,04,14,45,1.10
2021,11,04,14,46,2.10
2021,11,04,14,47,2.10
2021,11,04,14,48,3.10
2021,11,04,14,49,1.40
2021,11,04,14,50,4.00
2021,11,04,14,51,2.50
2021,11,04,14,52,1.40
2021,11,04,14,53,2.80
2021,11,04,14,54,3.00
2021,11,04,14,55,3.60
2021,11,04,14,56,3.40
2021,11,04,14,57,3.60
2021,11,04,14,58,2.90
2021,11,04,14,59,1.80
2021,11,04,15,00,2.00
2021,11,04,15,01,0.60
2021,11,04,15,02,3.60
2021,11,04,15,03,2.20
2021,11,04,15,04,0.20
2021,11,04,15,05,0.40
2021,11,04,15,06,0.00
2021,11,04,15,07,1.40
2021,11,04,15,08,3.30
2021,11,04,15,09,1.30
2021,11,04,15,10,2.60
2021,11,04,15,11,0.10
2021,11,04,15,12,0.80
2021,11,04,15,13,0.00
2021,11,04,15,14,0.10
2021,11,04,15,15,0.00
2021,11,04,15,16,0.40
2021,11,04,15,17,4.90
2021,11,04,15,18,5.60
2021,11,04,15,19,2.90
2021,11,04,15,20,0.00
2021,11,04,15,21,0.40
2021,11,04,15,22,0.40
2021,11,04,15,23,0.00
2021,11,04,15,24,2.00
2021,11,04,15,25,3.60
2021,11,04,15,26,1.30
2021,11,04,15,27,1.70
2021,11,04,15,28,6.90
2021,11,04,15,29,5.60
2021,11,04,15,30,1.70
2021,11,04,15,31,3.20
2021,11,04,15,32,4.90
2021,11,04,15,33,4.80
2021,11,04,15,34,1.60
2021,11,04,15,35,1.70
2021,11,04,15,36,1.60
2021,11,04,15,37,6.00
2021,11,04,15,38,1.50
2021,11,04,15,39,0.00
2021,11,04,15,40,0.00
2021,11,04,15,41,1.20
2021,11,04,15,42,0.70
2021,11,04,15,43,0.80
2021,11,04,15,44,2.50
2021,11,04,15,45,3.80
2021,11,04,15,46,3.50
2021,11,04,15,47,2.60
2021,11,04,15,48,3.80
2021,11,04,15,49,2.70
2021,11,04,15,50,3.00
2021,11,04,15,51,0.50
2021,11,04,15,52,1.70
2021,11,04,15,53,2.40
2021,11,04,15,54,1.30
2021,11,04,15,55,3.40
2021,11,04,15,56,2.00
2021,11,04,15,57,4.20
2021,11,04,15,58,3.40
2021,11,04,15,59,4.70
2021,11,04,16,00,7.60
2021,11,04,16,01,2.50
2021,11,04,16,02,2.90
2021,11,04,16,03,7.30
2021,11,04,16,04,6.30
2021,11,04,16,05,5.20
2021,11,04,16,06,5.90
2021,11,04,16,07,3.00
2021,11,04,16,08,4.10
2021,11,04,16,09,2.00
2021,11,04,16,10,2.00
2021,11,04,16,11,4.80
2021,11,04,16,12,3.60
2021,11,04,16,13,6.20
2021,11,04,16,14,5.80
2021,11,04,16,15,6.30
2021,11,04,16,16,3.20
2021,11,04,16,17,3.00
2021,11,04,16,18,2.80
2021,11,04,16,19,7.10
2021,11,04,16,20,7.10
2021,11,04,16,21,3.90
2021,11,04,16,22,2.70
2021,11,04,16,23,2.10
2021,11,04,16,24,0.90
2021,11,04,16,25,5.70
2021,11,04,16,26,1.10
2021,11,04,16,27,0.20
2021,11,04,16,28,2.80
2021,11,04,16,29,6.40
2021,11,04,16,30,1.20
2021,11,04,16,31,0.10
2021,11,04,16,32,0.00
2021,11,04,16,33,1.00
2021,11,04,16,34,5.20
2021,11,04,16,35,4.20
2021,11,04,16,36,2.00
2021,11,04,16,37,3.00
2021,11,04,16,38,4.30
2021,11,04,16,39,0.80
2021,11,04,16,40,1.20
2021,11,04,16,41,5.40
2021,11,04,16,42,2.40
2021,11,04,16,43,3.30
2021,11,04,16,44,1.90
2021,11,04,16,45,0.60
2021,11,04,16,46,0.30
2021,11,04,16,47,1.40
2021,11,04,16,48,1.90
2021,11,04,16,49,1.60
2021,11,04,16,50,3.20
2021,11,04,16,51,0.00
2021,11,04,16,52,3.50
2021,11,04,16,53,3.20
2021,11,04,16,54,3.30
2021,11,04,16,55,1.40
2021,11,04,16,56,2.30
2021,11,04,16,57,1.50
2021,11,04,16,58,3.70
2021,11,04,16,59,7.00
2021,11,04,17,00,3.50
2021,11,04,17,01,1.90
2021,11,04,17,02,5.30
2021,11,04,17,03,4.40
2021,11,04,17,04,7.80
2021,11,04,17,05,10.00
2021,11,04,17,06,7.20
2021,11,04,17,07,6.40
2021,11,04,17,08,3.30
2021,11,04,17,09,8.80
2021,11,04,17,10,6.30
2021,11,04,17,11,6.00
2021,11,04,17,12,7.80
2021,11,04,17,13,4.70
2021,11,04,17,14,6.20
2021,11,04,17,15,7.70
2021,11,04,17,16,8.20
2021,11,04,17,17,7.60
2021,11,04,17,18,4.80
2021,11,04,17,19,8.20
2021,11,04,17,20,6.40
2021,11,04,17,21,4.50
2021,11,04,17,22,6.70
2021,11,04,17,23,6.30
2021,11,04,17,24,8.40
2021,11,04,17,25,7.60
2021,11,04,17,26,7.90
2021,11,04,17,27,8.20
2021,11,04,17,28,9.20
2021,11,04,17,29,4.20
2021,11,04,17,30,5.10
2021,11,04,17,31,5.60
2021,11,04,17,32,6.70
2021,11,04,17,33,3.20
2021,11,04,17,34,6.10
2021,11,04,17,35,9.40
2021,11,04,17,36,8.10
2021,11,04,17,37,4.90
2021,11,04,17,38,4.90
2021,11,04,17,39,5.70
2021,11,04,17,40,5.10
2021,11,04,17,41,7.80
2021,11,04,17,42,9.10
2021,11,04,17,43,7.10
2021,11,04,17,44,8.60
2021,11,04,17,45,8.60
2021,11,04,17,46,9.20
2021,11,04,17,47,8.50
2021,11,04,17,48,8.60
2021,11,04,17,49,10.30
2021,11,04,17,50,7.60
2021,11,04,17,51,7.70